Hourly Data Report for June 13, 2021

WRIGLEY A
NORTHWEST TERRITORIES
Current Station Operator: NAVCAN

63°12'35.000" N
123°26'12.000" W
149.70 m
2204005
YWY

Download Data

Hourly Data (June 2021)
Hourly Data Report for June 13, 2021
TIME
LST
Temp Definition
°C
Dew Point Definition
°C
Rel Hum Definition
%
Precip. Amount Definition
mm

Wind Dir Definition
10's deg

Wind Spd Definition
km/h
Visibility Definition
km
Stn Press Definition
kPa
Hmdx Definition


Wind Chill Definition


Weather Definition


00:00 10.3 8.5 88 LegendMM 29 4 LegendMM 98.70     LegendNANA
01:00 10.0 9.2 95 LegendMM 2 4 LegendMM 98.71     LegendNANA
02:00 9.5 9.1 97 LegendMM 0 1 LegendMM 98.71     LegendNANA
03:00 9.5 9.0 97 LegendMM 5 3 LegendMM 98.73     LegendNANA
04:00 9.8 9.3 97 LegendMM 0 1 LegendMM 98.76     LegendNANA
05:00 9.5 9.1 97 LegendMM 1 4 LegendMM 98.78     LegendNANA
06:00 10.2 9.4 95 LegendMM 33 3 LegendMM 98.80     LegendNANA
07:00 11.7 9.7 88 LegendMM 30 5 LegendMM 98.84     LegendNANA
08:00 11.6 10.0 90 LegendMM 33 3 LegendMM 98.86     LegendNANA
09:00 13.8 9.5 75 LegendMM 26 5 LegendMM 98.87     LegendNANA
10:00 16.1 7.7 57 LegendMM 24 3 LegendMM 98.89     LegendNANA
11:00 16.9 8.2 56 LegendMM 28 7 LegendMM 98.88     LegendNANA
12:00 18.0 8.1 52 LegendMM 26 7 LegendMM 98.86     LegendNANA
13:00 19.2 8.0 48 LegendMM 31 17 LegendMM 98.86     LegendNANA
14:00 18.4 6.5 45 LegendMM 31 14 LegendMM 98.87     LegendNANA
15:00 18.7 8.2 50 LegendMM 30 14 LegendMM 98.90     LegendNANA
16:00 19.5 6.6 42 LegendMM 30 9 LegendMM 98.89     LegendNANA
17:00 19.3 5.9 41 LegendMM 26 5 LegendMM 98.90     LegendNANA
18:00 19.5 7.2 45 LegendMM 16 3 LegendMM 98.92     LegendNANA
19:00 19.3 9.9 54 LegendMM 12 11 LegendMM 98.93     LegendNANA
20:00 19.0 10.4 57 LegendMM 12 9 LegendMM 98.97     LegendNANA
21:00 17.3 11.1 66 LegendMM 7 5 LegendMM 99.04     LegendNANA
22:00 13.8 11.4 85 LegendMM 30 12 LegendMM 99.12     LegendNANA
23:00 13.3 10.7 84 LegendMM 31 12 LegendMM 99.18     LegendNANA

Notes on Data Quality.

Legend

  • E = Estimated
  • M = Missing
  • NA = Not Available*
  • [empty] = Indicates an unobserved value
Date modified: